Starlink 30224

operational
NORAD ID: 57416 Int'l Des: 2023-102 Owner: SPXS Country: US Constellation: starlink
LEOCIRCULAR

Über Starlink 30224

Beschreibung wird geladen...

Live-Position

3D-Globus wird geladen...

Nächste Überflüge

Höhenverlauf

Altitude vs Time

uPlot chart will show altitude changes over time

Zweizeiliger Elementsatz

1 57416U 23102N 25306.47836578 .00002783 00000-0 22103-3 0 9996
2 57416 43.0032 219.8342 0001106 275.0634 85.0082 15.02531011127104
Epoch: 2. Nov. 2025 • Age: 7 hours

Aktueller Status

Höhe 558.7 km
Geschwindigkeit 7.58 km/s
Subsatellitenpunkt 2.47°N, 73.63°E
Startdatum 19. Juli 2023
Alter 2.2 years
Typ internet

Technische Details

Klassifizierung Payload
Masse 730.00 kg
Trockenmasse 700.00 kg
Gesamtmasse 730.00 kg
Länge 0.30 m
Durchmesser 4.10 m
Spannweite 29.00 m
Form Box + pan
Hersteller SPXS
Bus-Typ Starlink V2M
Phasenstatus In Orbit
Besitzer/Staat SPXS/US

Große Konstellationen

Loading constellations...